This is the latest recevied weather packets stored in our database for station/object EA6AMI-5. If no packets are shown the sender has not sent any weather packets the latest 10 day(s).
| Time | Temp. | Humidity | Pressure | Rain* | Wind** | Luminosity | Snow |
|---|---|---|---|---|---|---|---|
| 1787864943 | 27.22° C | 62% | 1015.4 hPa | 0 mm | - | 0 W/m² | - |
| 1787864403 | 27.22° C | 63% | 1015.2 hPa | 0 mm | - | 0 W/m² | - |
| 1787864043 | 27.22° C | 66% | 1015.1 hPa | 0 mm | - | 0 W/m² | - |
| 1787863503 | 27.22° C | 66% | 1014.4 hPa | 0 mm | - | 0 W/m² | - |
| 1787862964 | 27.22° C | 68% | 1014.3 hPa | 0 mm | - | 0 W/m² | - |
| 1787862423 | 27.22° C | 71% | 1014.6 hPa | 0 mm | - | 0 W/m² | - |
| 1787861884 | 27.22° C | 71% | 1015.1 hPa | 0 mm | - | 0 W/m² | - |
| 1787861344 | 27.22° C | 72% | 1015.9 hPa | 0 mm | - | 0 W/m² | - |
| 1787860804 | 26.67° C | 74% | 1015.4 hPa | 0 mm | - | 0 W/m² | - |
| 1787860443 | 26.67° C | 75% | 1015.5 hPa | 0 mm | - | 0 W/m² | - |
| 1787859904 | 27.22° C | 76% | 1015.1 hPa | 0 mm | - | 0 W/m² | - |
| 1787859363 | 27.22° C | 75% | 1014.4 hPa | 0 mm | - | 0 W/m² | - |
| 1787858823 | 27.22° C | 74% | 1014.4 hPa | 0 mm | - | 0 W/m² | - |
| 1787858283 | 27.78° C | 67% | 1014.2 hPa | 0 mm | - | 0 W/m² | - |
| 1787857743 | 27.22° C | 62% | 1013.3 hPa | 0 mm | - | 0 W/m² | - |
| 1787857204 | 27.22° C | 70% | 1014.2 hPa | 0 mm | - | 0 W/m² | - |
| 1787856844 | 27.22° C | 69% | 1014.3 hPa | 0 mm | - | 0 W/m² | - |
| 1787856304 | 27.22° C | 71% | 1014.4 hPa | 0 mm | - | 0 W/m² | - |
| 1787855763 | 27.78° C | 72% | 1014.4 hPa | 0 mm | - | 0 W/m² | - |
| 1787855223 | 27.78° C | 72% | 1014.2 hPa | 0 mm | - | 0 W/m² | - |
| 1787854683 | 27.78° C | 67% | 1014 hPa | 0 mm | - | 1 W/m² | - |
| 1787854143 | 27.78° C | 68% | 1013.5 hPa | 0 mm | - | 1 W/m² | - |
| 1787853604 | 27.78° C | 70% | 1013.1 hPa | 0 mm | - | 3 W/m² | - |
| 1787853243 | 27.78° C | 71% | 1013.5 hPa | 0 mm | - | 5 W/m² | - |
| 1787852704 | 27.78° C | 71% | 1012.9 hPa | 0 mm | - | 5 W/m² | - |
* Rain latest hour (hover to see other rain measurements)
** Current wind speed in m/s (hover to see current wind gust speed)